Time,TemperatureF,DewpointF,PressureIn,WindDirection,WindDirectionDegrees,WindSpeedMPH,WindSpeedGustMPH,Humidity,HourlyPrecipIn,Conditions,Clouds,dailyrainin,SoftwareType,DateUTC
2013-05-23 00:01:00,57.3,56.5,29.45,South,180,4.4,8.6,95,0.00,,,0.00,Rainwise IP-100,2013-05-23 04:01:00,
2013-05-23 00:06:00,57.2,56.0,29.45,SW,225,4.9,8.4,95,0.00,,,0.00,Rainwise IP-100,2013-05-23 04:06:00,
2013-05-23 00:11:00,57.2,56.0,29.45,SSW,202,3.7,10.3,95,0.00,,,0.00,Rainwise IP-100,2013-05-23 04:11:00,
2013-05-23 00:16:00,57.2,56.0,29.45,SSE,157,1.9,7.2,95,0.00,,,0.00,Rainwise IP-100,2013-05-23 04:16:00,
2013-05-23 00:21:00,57.1,56.0,29.45,ESE,112,1.6,5.6,95,0.00,,,0.00,Rainwise IP-100,2013-05-23 04:21:00,
2013-05-23 00:26:00,57.1,56.0,29.46,SW,225,4.4,7.2,95,0.00,,,0.00,Rainwise IP-100,2013-05-23 04:26:00,
2013-05-23 00:31:00,57.0,56.0,29.46,ESE,112,1.9,7.2,95,0.00,,,0.00,Rainwise IP-100,2013-05-23 04:31:00,
2013-05-23 00:36:00,57.0,56.0,29.46,WSW,247,0.0,4.9,95,0.00,,,0.00,Rainwise IP-100,2013-05-23 04:36:00,
2013-05-23 00:41:00,57.0,56.0,29.45,South,180,0.0,8.2,95,0.00,,,0.00,Rainwise IP-100,2013-05-23 04:41:00,
2013-05-23 00:46:00,57.0,56.0,29.45,SW,225,3.5,8.2,95,0.00,,,0.00,Rainwise IP-100,2013-05-23 04:46:00,
2013-05-23 00:51:00,56.9,56.0,29.46,ESE,112,4.0,6.5,95,0.00,,,0.00,Rainwise IP-100,2013-05-23 04:51:00,
2013-05-23 00:56:00,56.9,56.0,29.46,SSW,202,1.9,4.7,96,0.00,,,0.00,Rainwise IP-100,2013-05-23 04:56:00,
2013-05-23 01:01:00,57.0,56.0,29.46,SW,225,3.3,3.7,96,0.00,,,0.00,Rainwise IP-100,2013-05-23 05:01:00,
2013-05-23 01:07:00,57.0,56.0,29.45,WNW,292,1.9,4.9,96,0.00,,,0.00,Rainwise IP-100,2013-05-23 05:07:00,
2013-05-23 01:12:00,56.9,56.0,29.45,SSE,157,0.0,3.7,96,0.00,,,0.00,Rainwise IP-100,2013-05-23 05:12:00,
2013-05-23 01:17:00,56.9,56.0,29.45,SSE,157,0.0,1.9,96,0.00,,,0.00,Rainwise IP-100,2013-05-23 05:17:00,
2013-05-23 01:22:00,56.8,56.0,29.45,WSW,247,0.0,1.9,96,0.00,,,0.00,Rainwise IP-100,2013-05-23 05:22:00,
2013-05-23 01:27:00,56.8,56.0,29.45,NNW,337,2.8,3.0,96,0.00,,,0.00,Rainwise IP-100,2013-05-23 05:27:00,
2013-05-23 01:32:00,56.8,56.0,29.44,ESE,112,1.4,2.8,96,0.00,,,0.00,Rainwise IP-100,2013-05-23 05:32:00,
2013-05-23 01:37:00,56.7,55.0,29.45,SSE,157,1.2,2.3,96,0.00,,,0.00,Rainwise IP-100,2013-05-23 05:37:00,
2013-05-23 01:42:00,56.7,55.0,29.45,SSE,157,0.0,1.2,96,0.00,,,0.00,Rainwise IP-100,2013-05-23 05:42:00,
2013-05-23 01:47:00,56.8,56.0,29.44,SW,225,1.4,3.0,96,0.00,,,0.00,Rainwise IP-100,2013-05-23 05:47:00,
2013-05-23 01:52:00,56.7,55.0,29.43,SSE,157,2.8,5.6,96,0.00,,,0.00,Rainwise IP-100,2013-05-23 05:52:00,
2013-05-23 01:57:00,56.7,55.0,29.43,ESE,112,2.6,4.9,96,0.00,,,0.00,Rainwise IP-100,2013-05-23 05:57:00,
2013-05-23 02:02:00,56.6,55.0,29.43,WSW,247,2.6,5.1,96,0.00,,,0.00,Rainwise IP-100,2013-05-23 06:02:00,
2013-05-23 02:07:00,56.5,55.0,29.42,WSW,247,1.6,5.6,96,0.00,,,0.00,Rainwise IP-100,2013-05-23 06:07:00,
2013-05-23 02:12:00,56.4,55.0,29.42,SSW,202,2.3,3.5,96,0.00,,,0.00,Rainwise IP-100,2013-05-23 06:12:00,
2013-05-23 02:17:00,56.4,55.0,29.42,South,180,0.0,4.4,96,0.00,,,0.00,Rainwise IP-100,2013-05-23 06:17:00,
2013-05-23 02:23:00,56.5,55.0,29.42,WSW,247,2.3,4.4,96,0.00,,,0.00,Rainwise IP-100,2013-05-23 06:23:00,
2013-05-23 02:28:00,56.5,55.0,29.41,SSE,157,0.0,6.1,96,0.00,,,0.00,Rainwise IP-100,2013-05-23 06:28:00,
2013-05-23 02:33:00,56.5,55.0,29.42,SW,225,1.2,3.7,96,0.00,,,0.00,Rainwise IP-100,2013-05-23 06:33:00,
2013-05-23 02:38:00,56.6,55.0,29.42,SSW,202,4.4,4.4,96,0.00,,,0.00,Rainwise IP-100,2013-05-23 06:38:00,
2013-05-23 02:43:00,56.6,55.0,29.42,SSW,202,2.3,5.1,96,0.00,,,0.00,Rainwise IP-100,2013-05-23 06:43:00,
2013-05-23 02:48:00,56.6,55.0,29.43,SSW,202,0.0,5.4,96,0.00,,,0.00,Rainwise IP-100,2013-05-23 06:48:00,
2013-05-23 02:53:00,56.7,55.0,29.42,SSW,202,0.0,1.4,96,0.00,,,0.00,Rainwise IP-100,2013-05-23 06:53:00,
2013-05-23 02:58:00,56.6,55.0,29.42,NW,315,0.0,0.0,96,0.00,,,0.00,Rainwise IP-100,2013-05-23 06:58:00,
2013-05-23 03:03:00,56.6,56.0,29.42,NW,315,0.0,1.6,97,0.00,,,0.00,Rainwise IP-100,2013-05-23 07:03:00,
2013-05-23 03:08:00,56.6,56.0,29.41,NNW,337,1.2,2.8,97,0.00,,,0.00,Rainwise IP-100,2013-05-23 07:08:00,
2013-05-23 03:13:00,56.5,56.0,29.42,NNW,337,1.6,2.3,97,0.00,,,0.00,Rainwise IP-100,2013-05-23 07:13:00,
2013-05-23 03:18:00,56.5,56.0,29.41,NNE,22,2.6,3.0,97,0.00,,,0.00,Rainwise IP-100,2013-05-23 07:18:00,
2013-05-23 03:23:00,56.4,56.0,29.41,NE,45,3.0,4.4,97,0.00,,,0.00,Rainwise IP-100,2013-05-23 07:23:00,
2013-05-23 03:28:00,56.3,56.0,29.41,NE,45,1.2,4.4,97,0.00,,,0.00,Rainwise IP-100,2013-05-23 07:28:00,
2013-05-23 03:33:00,56.2,55.0,29.41,NNE,22,3.7,4.0,97,0.00,,,0.00,Rainwise IP-100,2013-05-23 07:33:00,
2013-05-23 03:39:00,56.2,55.0,29.41,NNE,22,4.2,4.2,98,0.00,,,0.00,Rainwise IP-100,2013-05-23 07:39:00,
2013-05-23 03:44:00,56.2,55.0,29.41,NNW,337,1.4,4.7,98,0.00,,,0.00,Rainwise IP-100,2013-05-23 07:44:00,
2013-05-23 03:49:00,56.1,55.0,29.41,NNW,337,2.1,4.0,98,0.00,,,0.00,Rainwise IP-100,2013-05-23 07:49:00,
2013-05-23 03:51:00,56.0,55.0,29.41,WNW,292,2.1,4.0,98,0.00,,,0.00,Rainwise IP-100,2013-05-23 07:51:00,
2013-05-23 03:52:00,56.0,55.0,29.42,WNW,292,1.2,3.5,98,0.00,,,0.00,Rainwise IP-100,2013-05-23 07:52:00,
2013-05-23 03:57:00,56.0,55.0,29.42,WSW,247,0.0,2.8,98,0.00,,,0.00,Rainwise IP-100,2013-05-23 07:57:00,
2013-05-23 04:02:00,56.1,55.0,29.42,WSW,247,0.0,1.6,98,0.00,,,0.00,Rainwise IP-100,2013-05-23 08:02:00,
2013-05-23 04:07:00,56.2,55.0,29.43,SSW,202,0.0,1.9,98,0.00,,,0.00,Rainwise IP-100,2013-05-23 08:07:00,
2013-05-23 04:12:00,56.2,55.0,29.43,SSW,202,0.0,0.0,98,0.00,,,0.00,Rainwise IP-100,2013-05-23 08:12:00,
2013-05-23 04:17:00,56.2,55.0,29.42,SSW,202,0.0,0.0,98,0.00,,,0.00,Rainwise IP-100,2013-05-23 08:17:00,
2013-05-23 04:23:00,56.2,55.0,29.42,SSW,202,0.0,0.0,98,0.00,,,0.00,Rainwise IP-100,2013-05-23 08:23:00,
2013-05-23 04:28:00,56.1,55.0,29.42,SSW,202,0.0,1.2,98,0.00,,,0.00,Rainwise IP-100,2013-05-23 08:28:00,
2013-05-23 04:33:00,56.1,56.0,29.42,SSW,202,0.0,0.0,99,0.00,,,0.00,Rainwise IP-100,2013-05-23 08:33:00,
2013-05-23 04:38:00,56.1,56.0,29.42,SSW,202,0.0,0.0,99,0.00,,,0.00,Rainwise IP-100,2013-05-23 08:38:00,
2013-05-23 04:43:00,56.1,56.0,29.42,SSW,202,0.0,0.0,99,0.00,,,0.00,Rainwise IP-100,2013-05-23 08:43:00,
2013-05-23 04:48:00,56.1,56.0,29.41,ENE,67,0.0,1.4,99,0.00,,,0.00,Rainwise IP-100,2013-05-23 08:48:00,
2013-05-23 04:53:00,56.1,56.0,29.42,ENE,67,0.0,1.4,99,0.00,,,0.00,Rainwise IP-100,2013-05-23 08:53:00,
2013-05-23 04:58:00,56.1,56.0,29.42,ENE,67,0.0,0.0,99,0.00,,,0.00,Rainwise IP-100,2013-05-23 08:58:00,
2013-05-23 05:03:00,56.1,56.0,29.42,ENE,67,0.0,0.0,99,0.00,,,0.00,Rainwise IP-100,2013-05-23 09:03:00,
2013-05-23 05:08:00,56.1,56.0,29.42,ENE,67,0.0,0.0,99,0.00,,,0.00,Rainwise IP-100,2013-05-23 09:08:00,
2013-05-23 05:13:00,56.1,56.0,29.42,ENE,67,0.0,0.0,99,0.00,,,0.00,Rainwise IP-100,2013-05-23 09:13:00,
2013-05-23 05:18:00,56.1,56.0,29.42,ENE,67,0.0,0.0,99,0.00,,,0.00,Rainwise IP-100,2013-05-23 09:18:00,
2013-05-23 05:23:00,56.0,56.0,29.43,ENE,67,0.0,0.0,100,0.00,,,0.00,Rainwise IP-100,2013-05-23 09:23:00,
2013-05-23 05:28:00,55.9,56.0,29.43,ENE,67,0.0,0.0,100,0.00,,,0.00,Rainwise IP-100,2013-05-23 09:28:00,
2013-05-23 05:33:00,55.9,56.0,29.43,ENE,67,0.0,0.0,100,0.00,,,0.00,Rainwise IP-100,2013-05-23 09:33:00,
2013-05-23 05:39:00,55.9,56.0,29.43,ENE,67,0.0,0.0,100,0.00,,,0.00,Rainwise IP-100,2013-05-23 09:39:00,
2013-05-23 05:44:00,55.9,56.0,29.42,ENE,67,0.0,0.0,100,0.00,,,0.00,Rainwise IP-100,2013-05-23 09:44:00,
2013-05-23 05:49:00,55.9,56.0,29.42,ENE,67,0.0,1.6,100,0.00,,,0.00,Rainwise IP-100,2013-05-23 09:49:00,
2013-05-23 05:54:00,55.9,56.0,29.42,ENE,67,0.0,1.4,100,0.00,,,0.00,Rainwise IP-100,2013-05-23 09:54:00,
2013-05-23 05:59:00,55.9,56.0,29.43,ENE,67,0.0,0.0,100,0.00,,,0.00,Rainwise IP-100,2013-05-23 09:59:00,
2013-05-23 06:04:00,55.9,56.0,29.43,ENE,67,0.0,0.0,100,0.00,,,0.00,Rainwise IP-100,2013-05-23 10:04:00,
2013-05-23 06:09:00,56.0,56.0,29.43,ENE,67,0.0,0.0,100,0.00,,,0.00,Rainwise IP-100,2013-05-23 10:09:00,
2013-05-23 06:14:00,56.0,56.0,29.43,ENE,67,0.0,0.0,100,0.00,,,0.00,Rainwise IP-100,2013-05-23 10:14:00,
2013-05-23 06:19:00,56.0,56.0,29.44,ENE,67,0.0,0.0,100,0.00,,,0.00,Rainwise IP-100,2013-05-23 10:19:00,
2013-05-23 06:24:00,56.1,56.0,29.44,ENE,67,0.0,0.0,100,0.00,,,0.00,Rainwise IP-100,2013-05-23 10:24:00,
2013-05-23 06:29:00,56.0,56.0,29.44,ENE,67,0.0,0.0,100,0.00,,,0.00,Rainwise IP-100,2013-05-23 10:29:00,
2013-05-23 06:34:00,56.1,56.0,29.44,ENE,67,0.0,0.0,100,0.00,,,0.00,Rainwise IP-100,2013-05-23 10:34:00,
2013-05-23 06:39:00,56.1,56.0,29.44,ENE,67,0.0,0.0,100,0.00,,,0.00,Rainwise IP-100,2013-05-23 10:39:00,
2013-05-23 06:44:00,56.2,56.0,29.44,ENE,67,1.4,1.4,100,0.00,,,0.00,Rainwise IP-100,2013-05-23 10:44:00,
2013-05-23 06:49:00,56.3,56.5,29.44,ENE,67,1.2,1.4,100,0.00,,,0.00,Rainwise IP-100,2013-05-23 10:49:00,
2013-05-23 06:55:00,56.3,56.5,29.44,ENE,67,0.0,1.4,100,0.00,,,0.00,Rainwise IP-100,2013-05-23 10:55:00,
2013-05-23 07:00:00,56.3,56.5,29.44,ENE,67,0.0,1.4,100,0.00,,,0.00,Rainwise IP-100,2013-05-23 11:00:00,
2013-05-23 07:05:00,56.3,56.5,29.44,ENE,67,0.0,1.9,100,0.00,,,0.00,Rainwise IP-100,2013-05-23 11:05:00,
2013-05-23 07:10:00,56.3,56.5,29.44,ENE,67,0.0,1.4,100,0.00,,,0.00,Rainwise IP-100,2013-05-23 11:10:00,
2013-05-23 07:15:00,56.5,56.5,29.44,ENE,67,0.0,1.9,100,0.00,,,0.00,Rainwise IP-100,2013-05-23 11:15:00,
2013-05-23 07:20:00,56.7,56.5,29.44,ENE,67,0.0,2.1,100,0.00,,,0.00,Rainwise IP-100,2013-05-23 11:20:00,
2013-05-23 07:25:00,56.8,57.0,29.44,ENE,67,0.0,0.0,100,0.00,,,0.00,Rainwise IP-100,2013-05-23 11:25:00,
2013-05-23 07:30:00,56.9,57.0,29.44,ENE,67,1.4,1.4,100,0.00,,,0.00,Rainwise IP-100,2013-05-23 11:30:00,
2013-05-23 07:35:00,57.0,57.0,29.44,ENE,67,0.0,1.6,100,0.00,,,0.00,Rainwise IP-100,2013-05-23 11:35:00,
2013-05-23 07:40:00,57.0,57.0,29.44,ENE,67,0.0,1.4,100,0.00,,,0.00,Rainwise IP-100,2013-05-23 11:40:00,
2013-05-23 07:45:00,57.1,57.0,29.44,ENE,67,1.2,2.1,100,0.00,,,0.00,Rainwise IP-100,2013-05-23 11:45:00,
2013-05-23 07:50:00,57.2,57.0,29.43,ENE,67,0.0,1.6,100,0.00,,,0.00,Rainwise IP-100,2013-05-23 11:50:00,
2013-05-23 07:55:00,57.3,57.5,29.43,ENE,67,1.2,2.3,100,0.00,,,0.00,Rainwise IP-100,2013-05-23 11:55:00,
2013-05-23 08:00:00,57.4,57.5,29.43,ENE,67,1.2,1.6,100,0.00,,,0.00,Rainwise IP-100,2013-05-23 12:00:00,
2013-05-23 08:05:00,57.6,57.5,29.43,ENE,67,1.6,2.3,100,0.00,,,0.00,Rainwise IP-100,2013-05-23 12:05:00,
2013-05-23 08:11:00,57.8,58.0,29.43,ENE,67,0.0,1.9,99,0.00,,,0.00,Rainwise IP-100,2013-05-23 12:11:00,
2013-05-23 08:16:00,58.0,58.0,29.43,ENE,67,0.0,0.0,99,0.00,,,0.00,Rainwise IP-100,2013-05-23 12:16:00,
2013-05-23 08:21:00,58.3,58.0,29.43,ENE,67,0.0,1.2,99,0.00,,,0.00,Rainwise IP-100,2013-05-23 12:21:00,
2013-05-23 08:26:00,58.7,59.0,29.43,ENE,67,1.6,1.6,99,0.00,,,0.00,Rainwise IP-100,2013-05-23 12:26:00,
2013-05-23 08:31:00,58.7,59.0,29.43,NE,45,2.3,3.0,99,0.00,,,0.00,Rainwise IP-100,2013-05-23 12:31:00,
2013-05-23 08:36:00,58.7,58.0,29.43,NNE,22,0.0,3.0,98,0.00,,,0.00,Rainwise IP-100,2013-05-23 12:36:00,
2013-05-23 08:41:00,58.7,58.0,29.43,NNE,22,0.0,2.6,98,0.00,,,0.00,Rainwise IP-100,2013-05-23 12:41:00,
2013-05-23 08:46:00,58.9,58.0,29.43,NNE,22,0.0,3.5,98,0.00,,,0.00,Rainwise IP-100,2013-05-23 12:46:00,
2013-05-23 08:51:00,59.1,58.0,29.43,ENE,67,0.0,3.0,97,0.00,,,0.00,Rainwise IP-100,2013-05-23 12:51:00,
2013-05-23 08:56:00,59.5,59.0,29.43,ENE,67,0.0,1.9,98,0.00,,,0.00,Rainwise IP-100,2013-05-23 12:56:00,
2013-05-23 09:01:00,60.1,59.5,29.43,ENE,67,1.9,1.9,98,0.00,,,0.00,Rainwise IP-100,2013-05-23 13:01:00,
2013-05-23 09:06:00,60.1,59.5,29.43,ENE,67,1.6,2.1,98,0.00,,,0.00,Rainwise IP-100,2013-05-23 13:06:00,
2013-05-23 09:11:00,60.2,59.5,29.43,ENE,67,0.0,2.8,98,0.00,,,0.00,Rainwise IP-100,2013-05-23 13:11:00,
2013-05-23 09:16:00,60.9,60.5,29.43,ENE,67,0.0,0.0,98,0.00,,,0.00,Rainwise IP-100,2013-05-23 13:16:00,
2013-05-23 09:21:00,61.5,61.0,29.43,NNE,22,0.0,3.0,99,0.00,,,0.00,Rainwise IP-100,2013-05-23 13:21:00,
2013-05-23 09:27:00,61.7,61.0,29.42,NNE,22,3.3,4.0,99,0.00,,,0.00,Rainwise IP-100,2013-05-23 13:27:00,
2013-05-23 09:32:00,62.2,61.0,29.42,NE,45,3.3,4.9,97,0.00,,,0.00,Rainwise IP-100,2013-05-23 13:32:00,
2013-05-23 09:37:00,62.5,61.0,29.43,North,360,1.2,4.2,94,0.00,,,0.00,Rainwise IP-100,2013-05-23 13:37:00,
2013-05-23 09:42:00,62.5,61.0,29.42,NNE,22,0.0,3.7,94,0.00,,,0.00,Rainwise IP-100,2013-05-23 13:42:00,
2013-05-23 09:47:00,63.2,62.0,29.41,NNE,22,0.0,1.6,96,0.00,,,0.00,Rainwise IP-100,2013-05-23 13:47:00,
2013-05-23 09:52:00,63.6,62.5,29.41,NE,45,2.8,3.7,97,0.00,,,0.00,Rainwise IP-100,2013-05-23 13:52:00,
2013-05-23 09:57:00,63.9,63.0,29.41,NNE,22,1.2,3.5,96,0.00,,,0.00,Rainwise IP-100,2013-05-23 13:57:00,
2013-05-23 10:02:00,64.3,63.5,29.41,NE,45,3.5,3.5,96,0.00,,,0.00,Rainwise IP-100,2013-05-23 14:02:00,
2013-05-23 10:07:00,64.1,62.5,29.41,NE,45,3.0,3.5,95,0.00,,,0.00,Rainwise IP-100,2013-05-23 14:07:00,
2013-05-23 10:12:00,64.4,62.5,29.41,ENE,67,1.6,3.0,94,0.00,,,0.00,Rainwise IP-100,2013-05-23 14:12:00,
2013-05-23 10:17:00,66.0,64.5,29.41,ENE,67,0.0,2.1,96,0.00,,,0.00,Rainwise IP-100,2013-05-23 14:17:00,
2013-05-23 10:22:00,66.9,66.3,29.41,ENE,67,0.0,3.0,97,0.00,,,0.00,Rainwise IP-100,2013-05-23 14:22:00,
2013-05-23 10:27:00,68.0,67.5,29.41,NNW,337,1.2,2.3,98,0.00,,,0.00,Rainwise IP-100,2013-05-23 14:27:00,
2013-05-23 10:32:00,68.5,68.0,29.40,ENE,67,0.0,3.5,99,0.00,,,0.00,Rainwise IP-100,2013-05-23 14:32:00,
2013-05-23 10:37:00,68.3,68.0,29.40,ESE,112,0.0,2.8,98,0.00,,,0.00,Rainwise IP-100,2013-05-23 14:37:00,
2013-05-23 10:43:00,69.8,69.3,29.41,SSW,202,1.6,2.8,98,0.00,,,0.00,Rainwise IP-100,2013-05-23 14:43:00,
2013-05-23 10:48:00,71.2,71.0,29.40,SSE,157,1.6,4.9,99,0.00,,,0.00,Rainwise IP-100,2013-05-23 14:48:00,
2013-05-23 10:53:00,71.5,71.3,29.40,SSW,202,3.3,6.3,99,0.00,,,0.00,Rainwise IP-100,2013-05-23 14:53:00,
2013-05-23 10:58:00,71.6,70.5,29.39,SSW,202,4.9,10.7,96,0.00,,,0.00,Rainwise IP-100,2013-05-23 14:58:00,
2013-05-23 11:03:00,71.7,68.5,29.39,SSE,157,4.2,13.3,90,0.00,,,0.00,Rainwise IP-100,2013-05-23 15:03:00,
2013-05-23 11:08:00,72.2,68.0,29.39,WSW,247,5.6,12.1,86,0.00,,,0.00,Rainwise IP-100,2013-05-23 15:08:00,
2013-05-23 11:13:00,72.8,68.0,29.39,SSW,202,6.5,7.7,85,0.00,,,0.00,Rainwise IP-100,2013-05-23 15:13:00,
2013-05-23 11:18:00,73.0,67.5,29.39,SSE,157,1.9,8.9,83,0.00,,,0.00,Rainwise IP-100,2013-05-23 15:18:00,
2013-05-23 11:23:00,73.3,67.5,29.39,SSW,202,4.0,7.7,82,0.00,,,0.00,Rainwise IP-100,2013-05-23 15:23:00,
2013-05-23 11:28:00,73.6,68.5,29.39,SSW,202,4.0,6.1,83,0.00,,,0.00,Rainwise IP-100,2013-05-23 15:28:00,
2013-05-23 11:33:00,73.8,68.5,29.39,WSW,247,1.2,5.6,83,0.00,,,0.00,Rainwise IP-100,2013-05-23 15:33:00,
2013-05-23 11:38:00,73.9,68.5,29.39,SSW,202,4.0,6.3,82,0.00,,,0.00,Rainwise IP-100,2013-05-23 15:38:00,
2013-05-23 11:43:00,74.1,68.5,29.38,SSW,202,0.0,5.4,82,0.00,,,0.00,Rainwise IP-100,2013-05-23 15:43:00,
2013-05-23 11:48:00,74.4,68.5,29.38,SSW,202,1.6,3.5,81,0.00,,,0.00,Rainwise IP-100,2013-05-23 15:48:00,
2013-05-23 11:53:00,74.7,68.5,29.38,SE,135,1.6,4.7,81,0.00,,,0.00,Rainwise IP-100,2013-05-23 15:53:00,
2013-05-23 11:59:00,75.1,68.5,29.37,SSW,202,2.3,7.2,80,0.00,,,0.00,Rainwise IP-100,2013-05-23 15:59:00,
2013-05-23 12:04:00,75.6,69.0,29.37,SSW,202,3.7,8.2,80,0.00,,,0.00,Rainwise IP-100,2013-05-23 16:04:00,
2013-05-23 12:09:00,75.7,68.0,29.37,SSW,202,7.7,9.3,78,0.00,,,0.00,Rainwise IP-100,2013-05-23 16:09:00,
2013-05-23 12:14:00,75.4,67.5,29.37,WSW,247,12.1,12.1,76,0.00,,,0.00,Rainwise IP-100,2013-05-23 16:14:00,
2013-05-23 12:19:00,75.5,67.5,29.37,South,180,7.2,12.1,76,0.00,,,0.00,Rainwise IP-100,2013-05-23 16:19:00,
2013-05-23 12:24:00,75.9,67.5,29.37,SSW,202,3.5,14.2,75,0.00,,,0.00,Rainwise IP-100,2013-05-23 16:24:00,
2013-05-23 12:29:00,76.0,67.0,29.37,SSW,202,5.6,10.7,74,0.00,,,0.00,Rainwise IP-100,2013-05-23 16:29:00,
2013-05-23 12:34:00,76.2,67.0,29.37,SSE,157,4.2,9.3,74,0.00,,,0.00,Rainwise IP-100,2013-05-23 16:34:00,
2013-05-23 12:39:00,76.4,67.0,29.37,SSE,157,4.4,11.4,73,0.00,,,0.00,Rainwise IP-100,2013-05-23 16:39:00,
2013-05-23 12:44:00,76.2,67.0,29.37,SW,225,3.3,8.6,74,0.00,,,0.00,Rainwise IP-100,2013-05-23 16:44:00,
2013-05-23 12:49:00,75.9,67.0,29.36,SSW,202,6.3,7.5,74,0.00,,,0.00,Rainwise IP-100,2013-05-23 16:49:00,
2013-05-23 12:54:00,75.7,67.0,29.36,SSW,202,6.8,10.0,75,0.00,,,0.00,Rainwise IP-100,2013-05-23 16:54:00,
2013-05-23 12:59:00,75.7,67.0,29.36,SSW,202,6.3,7.7,75,0.00,,,0.00,Rainwise IP-100,2013-05-23 16:59:00,
2013-05-23 13:04:00,75.7,67.5,29.36,SSW,202,4.2,12.8,76,0.00,,,0.00,Rainwise IP-100,2013-05-23 17:04:00,
2013-05-23 13:09:00,75.7,67.5,29.36,SSW,202,4.0,8.6,76,0.00,,,0.00,Rainwise IP-100,2013-05-23 17:09:00,
2013-05-23 13:15:00,75.6,67.5,29.37,SSW,202,4.0,7.9,76,0.00,,,0.00,Rainwise IP-100,2013-05-23 17:15:00,
2013-05-23 13:20:00,75.4,68.0,29.36,SSW,202,6.1,14.5,77,0.00,,,0.00,Rainwise IP-100,2013-05-23 17:20:00,
2013-05-23 13:25:00,75.2,67.5,29.36,South,180,11.7,12.4,77,0.00,,,0.00,Rainwise IP-100,2013-05-23 17:25:00,
2013-05-23 13:30:00,74.9,67.5,29.36,SSE,157,4.7,15.2,77,0.00,,,0.00,Rainwise IP-100,2013-05-23 17:30:00,
2013-05-23 13:35:00,74.6,67.5,29.36,SSW,202,7.5,14.9,78,0.00,,,0.00,Rainwise IP-100,2013-05-23 17:35:00,
2013-05-23 13:40:00,74.8,67.5,29.36,SSE,157,3.0,16.1,78,0.00,,,0.00,Rainwise IP-100,2013-05-23 17:40:00,
2013-05-23 13:45:00,74.9,68.0,29.35,SSW,202,7.9,16.3,78,0.00,,,0.00,Rainwise IP-100,2013-05-23 17:45:00,
2013-05-23 13:50:00,74.7,67.5,29.36,SSW,202,8.4,16.3,78,0.00,,,0.00,Rainwise IP-100,2013-05-23 17:50:00,
2013-05-23 13:55:00,74.5,67.5,29.35,SSW,202,13.8,16.6,78,0.00,,,0.00,Rainwise IP-100,2013-05-23 17:55:00,
2013-05-23 14:00:00,74.3,67.5,29.35,SSW,202,10.7,17.7,79,0.00,,,0.00,Rainwise IP-100,2013-05-23 18:00:00,
2013-05-23 14:05:00,73.9,67.0,29.35,SSW,202,6.3,13.5,79,0.00,,,0.00,Rainwise IP-100,2013-05-23 18:05:00,
2013-05-23 14:10:00,73.7,67.0,29.35,SSE,157,7.9,14.7,80,0.00,,,0.00,Rainwise IP-100,2013-05-23 18:10:00,
2013-05-23 14:15:00,73.5,67.5,29.34,SSW,202,6.8,13.1,81,0.00,,,0.00,Rainwise IP-100,2013-05-23 18:15:00,
2013-05-23 14:20:00,73.2,67.0,29.34,SSW,202,9.3,13.3,81,0.00,,,0.00,Rainwise IP-100,2013-05-23 18:20:00,
2013-05-23 14:25:00,73.2,67.5,29.35,SSW,202,7.0,13.3,82,0.00,,,0.00,Rainwise IP-100,2013-05-23 18:25:00,
2013-05-23 14:31:00,73.2,67.5,29.35,SSW,202,5.4,14.5,82,0.00,,,0.00,Rainwise IP-100,2013-05-23 18:31:00,
2013-05-23 14:36:00,73.5,68.0,29.34,SSW,202,8.6,10.7,82,0.00,,,0.00,Rainwise IP-100,2013-05-23 18:36:00,
2013-05-23 14:41:00,74.1,68.0,29.34,SSW,202,4.4,12.8,81,0.00,,,0.00,Rainwise IP-100,2013-05-23 18:41:00,
2013-05-23 14:46:00,74.6,68.5,29.34,SSW,202,5.1,11.4,80,0.00,,,0.00,Rainwise IP-100,2013-05-23 18:46:00,
2013-05-23 14:51:00,74.7,68.5,29.34,SE,135,6.1,10.5,80,0.00,,,0.00,Rainwise IP-100,2013-05-23 18:51:00,
2013-05-23 14:56:00,74.3,68.0,29.35,SSW,202,11.7,11.7,80,0.00,,,0.00,Rainwise IP-100,2013-05-23 18:56:00,
2013-05-23 15:01:00,73.8,67.0,29.35,South,180,5.6,14.5,80,0.00,,,0.00,Rainwise IP-100,2013-05-23 19:01:00,
2013-05-23 15:06:00,73.5,67.5,29.35,SSW,202,7.7,13.3,81,0.00,,,0.00,Rainwise IP-100,2013-05-23 19:06:00,
2013-05-23 15:11:00,73.4,67.0,29.35,SSW,202,6.5,11.4,81,0.00,,,0.00,Rainwise IP-100,2013-05-23 19:11:00,
2013-05-23 15:16:00,73.1,67.0,29.35,SSW,202,8.9,13.1,82,0.00,,,0.00,Rainwise IP-100,2013-05-23 19:16:00,
2013-05-23 15:21:00,72.9,67.0,29.35,SSW,202,9.8,15.9,82,0.00,,,0.00,Rainwise IP-100,2013-05-23 19:21:00,
2013-05-23 15:26:00,72.8,66.7,29.35,SSE,157,8.2,13.1,82,0.00,,,0.00,Rainwise IP-100,2013-05-23 19:26:00,
2013-05-23 15:31:00,72.7,66.7,29.35,SSW,202,7.9,16.1,82,0.00,,,0.00,Rainwise IP-100,2013-05-23 19:31:00,
2013-05-23 15:36:00,72.7,67.0,29.35,South,180,8.4,16.8,83,0.00,,,0.00,Rainwise IP-100,2013-05-23 19:36:00,
2013-05-23 15:41:00,72.8,67.0,29.35,WSW,247,4.9,14.9,83,0.00,,,0.00,Rainwise IP-100,2013-05-23 19:41:00,
2013-05-23 15:47:00,73.0,67.0,29.35,SSE,157,6.5,12.8,82,0.00,,,0.00,Rainwise IP-100,2013-05-23 19:47:00,
2013-05-23 15:52:00,73.1,67.0,29.35,SSW,202,4.9,11.4,82,0.00,,,0.00,Rainwise IP-100,2013-05-23 19:52:00,
2013-05-23 15:57:00,73.1,67.0,29.35,SSW,202,8.6,8.6,82,0.00,,,0.00,Rainwise IP-100,2013-05-23 19:57:00,
2013-05-23 16:02:00,73.1,67.0,29.35,SSE,157,4.7,10.0,82,0.00,,,0.00,Rainwise IP-100,2013-05-23 20:02:00,
2013-05-23 16:07:00,73.2,67.5,29.35,SW,225,10.3,14.7,82,0.00,,,0.00,Rainwise IP-100,2013-05-23 20:07:00,
2013-05-23 16:12:00,72.7,66.7,29.36,WSW,247,11.9,18.2,81,0.00,,,0.00,Rainwise IP-100,2013-05-23 20:12:00,
2013-05-23 16:17:00,72.1,66.0,29.35,SSW,202,10.0,19.6,81,0.00,,,0.00,Rainwise IP-100,2013-05-23 20:17:00,
2013-05-23 16:22:00,71.8,66.0,29.35,WSW,247,1.9,13.8,82,0.00,,,0.00,Rainwise IP-100,2013-05-23 20:22:00,
2013-05-23 16:27:00,71.5,66.3,29.35,SSE,157,4.9,11.0,83,0.00,,,0.00,Rainwise IP-100,2013-05-23 20:27:00,
2013-05-23 16:32:00,71.2,66.3,29.35,SE,135,1.6,8.6,84,0.00,,,0.00,Rainwise IP-100,2013-05-23 20:32:00,
2013-05-23 16:37:00,71.0,66.0,29.35,SSW,202,6.3,7.7,84,0.00,,,0.00,Rainwise IP-100,2013-05-23 20:37:00,
2013-05-23 16:42:00,70.9,66.3,29.35,SSW,202,2.8,7.9,85,0.00,,,0.00,Rainwise IP-100,2013-05-23 20:42:00,
2013-05-23 16:47:00,71.0,66.3,29.35,WSW,247,5.4,5.4,86,0.00,,,0.00,Rainwise IP-100,2013-05-23 20:47:00,
2013-05-23 16:52:00,71.3,66.7,29.35,SSE,157,5.4,9.3,86,0.00,,,0.00,Rainwise IP-100,2013-05-23 20:52:00,
2013-05-23 16:57:00,71.4,66.3,29.35,SSW,202,4.7,11.2,85,0.00,,,0.00,Rainwise IP-100,2013-05-23 20:57:00,
2013-05-23 17:03:00,71.6,66.7,29.35,SSW,202,12.1,12.1,84,0.00,,,0.00,Rainwise IP-100,2013-05-23 21:03:00,
2013-05-23 17:08:00,71.6,66.7,29.34,SSW,202,6.5,14.5,84,0.00,,,0.00,Rainwise IP-100,2013-05-23 21:08:00,
2013-05-23 17:13:00,71.5,66.7,29.35,WSW,247,5.4,16.8,84,0.00,,,0.00,Rainwise IP-100,2013-05-23 21:13:00,
2013-05-23 17:18:00,71.4,66.3,29.35,SSW,202,7.0,20.3,84,0.00,,,0.00,Rainwise IP-100,2013-05-23 21:18:00,
2013-05-23 17:23:00,71.4,66.3,29.34,South,180,2.8,13.3,84,0.00,,,0.00,Rainwise IP-100,2013-05-23 21:23:00,
2013-05-23 17:28:00,71.4,66.3,29.34,SSW,202,5.6,15.2,85,0.00,,,0.00,Rainwise IP-100,2013-05-23 21:28:00,
2013-05-23 17:33:00,71.2,66.3,29.34,SSW,202,5.4,19.1,85,0.00,,,0.00,Rainwise IP-100,2013-05-23 21:33:00,
2013-05-23 17:38:00,71.0,66.3,29.34,South,180,4.2,18.0,85,0.00,,,0.00,Rainwise IP-100,2013-05-23 21:38:00,
2013-05-23 17:43:00,71.0,66.3,29.34,SSE,157,7.7,16.1,85,0.00,,,0.00,Rainwise IP-100,2013-05-23 21:43:00,
2013-05-23 17:48:00,71.0,66.3,29.35,SSE,157,6.3,18.2,85,0.00,,,0.00,Rainwise IP-100,2013-05-23 21:48:00,
2013-05-23 17:53:00,70.9,66.3,29.34,SSW,202,3.7,11.0,85,0.00,,,0.00,Rainwise IP-100,2013-05-23 21:53:00,
2013-05-23 17:58:00,70.7,66.3,29.34,SSW,202,7.7,9.6,86,0.00,,,0.00,Rainwise IP-100,2013-05-23 21:58:00,
2013-05-23 18:03:00,70.6,66.3,29.34,SSW,202,7.5,18.2,86,0.00,,,0.00,Rainwise IP-100,2013-05-23 22:03:00,
2013-05-23 18:08:00,70.5,66.3,29.34,WSW,247,4.7,13.1,86,0.00,,,0.00,Rainwise IP-100,2013-05-23 22:08:00,
2013-05-23 18:13:00,70.4,66.3,29.34,SSW,202,5.6,14.5,86,0.00,,,0.00,Rainwise IP-100,2013-05-23 22:13:00,
2013-05-23 18:19:00,70.3,66.3,29.34,WSW,247,3.3,11.9,87,0.00,,,0.00,Rainwise IP-100,2013-05-23 22:19:00,
2013-05-23 18:24:00,70.3,66.3,29.34,South,180,11.7,11.9,87,0.00,,,0.00,Rainwise IP-100,2013-05-23 22:24:00,
2013-05-23 18:29:00,70.2,66.0,29.34,SSW,202,7.5,12.8,86,0.00,,,0.00,Rainwise IP-100,2013-05-23 22:29:00,
2013-05-23 18:34:00,70.1,66.0,29.34,SW,225,7.9,14.9,86,0.00,,,0.00,Rainwise IP-100,2013-05-23 22:34:00,
2013-05-23 18:39:00,69.9,66.0,29.34,SSW,202,7.7,11.2,86,0.00,,,0.00,Rainwise IP-100,2013-05-23 22:39:00,
2013-05-23 18:44:00,69.7,66.0,29.34,SSE,157,3.7,10.3,87,0.00,,,0.00,Rainwise IP-100,2013-05-23 22:44:00,
2013-05-23 18:49:00,69.5,66.0,29.34,South,180,5.4,14.5,87,0.00,,,0.00,Rainwise IP-100,2013-05-23 22:49:00,
2013-05-23 18:54:00,69.4,65.5,29.35,SW,225,7.0,12.6,87,0.00,,,0.00,Rainwise IP-100,2013-05-23 22:54:00,
2013-05-23 18:59:00,69.4,65.5,29.34,South,180,10.5,12.6,87,0.00,,,0.00,Rainwise IP-100,2013-05-23 22:59:00,
2013-05-23 19:04:00,69.5,66.0,29.34,WSW,247,4.4,13.1,87,0.00,,,0.00,Rainwise IP-100,2013-05-23 23:04:00,
2013-05-23 19:09:00,69.4,65.5,29.34,SSE,157,6.3,15.6,87,0.00,,,0.00,Rainwise IP-100,2013-05-23 23:09:00,
2013-05-23 19:14:00,69.4,65.5,29.35,SSW,202,6.3,11.7,87,0.00,,,0.00,Rainwise IP-100,2013-05-23 23:14:00,
2013-05-23 19:19:00,69.4,65.5,29.35,SSW,202,7.0,13.3,87,0.00,,,0.00,Rainwise IP-100,2013-05-23 23:19:00,
2013-05-23 19:24:00,69.4,65.5,29.35,SW,225,8.2,13.5,87,0.00,,,0.00,Rainwise IP-100,2013-05-23 23:24:00,
2013-05-23 19:29:00,69.4,65.5,29.35,SSW,202,6.1,12.4,87,0.00,,,0.00,Rainwise IP-100,2013-05-23 23:29:00,
2013-05-23 19:35:00,69.3,65.5,29.34,WSW,247,6.3,12.4,87,0.00,,,0.00,Rainwise IP-100,2013-05-23 23:35:00,
2013-05-23 19:40:00,69.2,65.5,29.35,WSW,247,3.7,14.0,87,0.00,,,0.00,Rainwise IP-100,2013-05-23 23:40:00,
2013-05-23 19:45:00,69.0,65.0,29.34,SSW,202,10.7,12.6,87,0.00,,,0.00,Rainwise IP-100,2013-05-23 23:45:00,
2013-05-23 19:50:00,69.0,65.0,29.35,SSW,202,8.9,15.2,88,0.00,,,0.00,Rainwise IP-100,2013-05-23 23:50:00,
2013-05-23 19:55:00,69.0,65.0,29.35,SSE,157,7.5,13.8,88,0.00,,,0.00,Rainwise IP-100,2013-05-23 23:55:00,
2013-05-23 20:00:00,68.9,65.0,29.35,SSE,157,9.6,15.4,88,0.00,,,0.00,Rainwise IP-100,2013-05-24 00:00:00,
2013-05-23 20:05:00,68.9,65.0,29.35,SSW,202,5.8,10.0,88,0.00,,,0.00,Rainwise IP-100,2013-05-24 00:05:00,
2013-05-23 20:10:00,68.8,65.0,29.34,SSW,202,7.5,10.5,88,0.00,,,0.00,Rainwise IP-100,2013-05-24 00:10:00,
2013-05-23 20:15:00,68.7,65.0,29.35,SSW,202,9.6,17.7,88,0.00,,,0.00,Rainwise IP-100,2013-05-24 00:15:00,
2013-05-23 20:20:00,68.7,65.0,29.35,SSE,157,5.1,11.9,88,0.00,,,0.00,Rainwise IP-100,2013-05-24 00:20:00,
2013-05-23 20:25:00,68.7,65.0,29.35,SW,225,9.1,14.2,88,0.00,,,0.00,Rainwise IP-100,2013-05-24 00:25:00,
2013-05-23 20:30:00,68.6,65.0,29.35,SSW,202,6.1,14.2,88,0.00,,,0.00,Rainwise IP-100,2013-05-24 00:30:00,
2013-05-23 20:35:00,68.4,65.0,29.35,SW,225,10.0,11.2,88,0.00,,,0.00,Rainwise IP-100,2013-05-24 00:35:00,
2013-05-23 20:40:00,68.3,65.0,29.35,SSW,202,8.6,11.4,89,0.00,,,0.00,Rainwise IP-100,2013-05-24 00:40:00,
2013-05-23 20:45:00,68.2,64.5,29.35,South,180,10.5,11.7,89,0.00,,,0.00,Rainwise IP-100,2013-05-24 00:45:00,
2013-05-23 20:51:00,68.1,64.5,29.35,SSW,202,8.4,12.8,89,0.00,,,0.00,Rainwise IP-100,2013-05-24 00:51:00,
2013-05-23 20:56:00,68.0,64.5,29.35,SSW,202,8.2,12.1,89,0.00,,,0.00,Rainwise IP-100,2013-05-24 00:56:00,
2013-05-23 21:01:00,67.9,64.5,29.35,SW,225,6.5,12.8,89,0.00,,,0.00,Rainwise IP-100,2013-05-24 01:01:00,
2013-05-23 21:06:00,67.7,64.5,29.35,WSW,247,4.7,14.7,90,0.00,,,0.00,Rainwise IP-100,2013-05-24 01:06:00,
2013-05-23 21:11:00,67.7,64.5,29.35,WSW,247,4.4,9.1,90,0.00,,,0.00,Rainwise IP-100,2013-05-24 01:11:00,
2013-05-23 21:16:00,67.6,64.5,29.34,WSW,247,2.1,13.1,90,0.00,,,0.00,Rainwise IP-100,2013-05-24 01:16:00,
2013-05-23 21:21:00,67.5,64.5,29.34,SSW,202,5.1,8.2,90,0.00,,,0.00,Rainwise IP-100,2013-05-24 01:21:00,
2013-05-23 21:26:00,67.5,64.5,29.33,WSW,247,1.2,12.6,90,0.00,,,0.00,Rainwise IP-100,2013-05-24 01:26:00,
2013-05-23 21:31:00,67.4,64.5,29.34,SSW,202,6.3,10.3,90,0.00,,,0.00,Rainwise IP-100,2013-05-24 01:31:00,
2013-05-23 21:36:00,67.4,64.5,29.34,South,180,10.3,14.0,90,0.00,,,0.00,Rainwise IP-100,2013-05-24 01:36:00,
2013-05-23 21:41:00,67.4,64.5,29.34,SSW,202,2.8,10.5,90,0.00,,,0.00,Rainwise IP-100,2013-05-24 01:41:00,
2013-05-23 21:46:00,67.4,64.5,29.34,SSE,157,0.0,13.8,90,0.00,,,0.00,Rainwise IP-100,2013-05-24 01:46:00,
2013-05-23 21:51:00,67.4,64.5,29.35,SSE,157,6.5,7.2,90,0.00,,,0.00,Rainwise IP-100,2013-05-24 01:51:00,
2013-05-23 21:56:00,67.3,64.5,29.35,WSW,247,4.4,11.2,90,0.00,,,0.00,Rainwise IP-100,2013-05-24 01:56:00,
2013-05-23 22:01:00,67.3,64.5,29.35,SSW,202,7.2,8.6,90,0.00,,,0.00,Rainwise IP-100,2013-05-24 02:01:00,
2013-05-23 22:07:00,67.3,64.5,29.35,WSW,247,1.6,8.2,90,0.00,,,0.00,Rainwise IP-100,2013-05-24 02:07:00,
2013-05-23 22:12:00,67.1,64.0,29.35,SW,225,6.8,12.4,90,0.00,,,0.00,Rainwise IP-100,2013-05-24 02:12:00,
2013-05-23 22:17:00,67.1,64.0,29.35,SSW,202,5.1,10.3,90,0.00,,,0.00,Rainwise IP-100,2013-05-24 02:17:00,
2013-05-23 22:22:00,67.1,64.5,29.35,WSW,247,6.8,8.9,91,0.00,,,0.00,Rainwise IP-100,2013-05-24 02:22:00,
2013-05-23 22:27:00,67.1,64.5,29.34,SSW,202,3.5,7.7,91,0.00,,,0.00,Rainwise IP-100,2013-05-24 02:27:00,
2013-05-23 22:32:00,67.1,64.5,29.34,SSW,202,5.4,11.4,91,0.00,,,0.00,Rainwise IP-100,2013-05-24 02:32:00,
2013-05-23 22:37:00,67.0,64.5,29.34,SW,225,8.6,11.9,91,0.00,,,0.00,Rainwise IP-100,2013-05-24 02:37:00,
2013-05-23 22:42:00,67.0,64.5,29.34,SW,225,3.7,11.0,91,0.00,,,0.00,Rainwise IP-100,2013-05-24 02:42:00,
2013-05-23 22:47:00,67.0,64.5,29.34,SSW,202,6.1,9.6,91,0.00,,,0.00,Rainwise IP-100,2013-05-24 02:47:00,
2013-05-23 22:52:00,67.0,64.5,29.34,SSW,202,6.1,10.0,91,0.00,,,0.00,Rainwise IP-100,2013-05-24 02:52:00,
2013-05-23 22:57:00,67.0,64.5,29.33,South,180,5.4,10.3,91,0.00,,,0.00,Rainwise IP-100,2013-05-24 02:57:00,
2013-05-23 23:02:00,67.0,64.5,29.33,SSW,202,5.6,8.6,91,0.00,,,0.00,Rainwise IP-100,2013-05-24 03:02:00,
2013-05-23 23:07:00,66.9,64.5,29.33,WSW,247,3.0,11.2,91,0.00,,,0.00,Rainwise IP-100,2013-05-24 03:07:00,
2013-05-23 23:12:00,66.9,64.5,29.33,SSW,202,4.2,8.4,91,0.00,,,0.00,Rainwise IP-100,2013-05-24 03:12:00,
2013-05-23 23:17:00,66.9,64.5,29.33,SSW,202,3.5,7.5,91,0.00,,,0.00,Rainwise IP-100,2013-05-24 03:17:00,
2013-05-23 23:23:00,67.0,64.5,29.33,SSW,202,4.0,7.9,91,0.00,,,0.00,Rainwise IP-100,2013-05-24 03:23:00,
2013-05-23 23:28:00,67.0,64.5,29.33,SSW,202,3.3,7.2,91,0.00,,,0.00,Rainwise IP-100,2013-05-24 03:28:00,
2013-05-23 23:33:00,66.9,64.5,29.33,SSW,202,3.5,7.7,91,0.00,,,0.00,Rainwise IP-100,2013-05-24 03:33:00,
2013-05-23 23:38:00,66.9,64.5,29.32,South,180,3.0,8.9,91,0.00,,,0.00,Rainwise IP-100,2013-05-24 03:38:00,
2013-05-23 23:43:00,66.8,64.0,29.32,SSW,202,6.8,11.4,91,0.00,,,0.00,Rainwise IP-100,2013-05-24 03:43:00,
2013-05-23 23:48:00,66.8,64.0,29.33,SW,225,3.5,7.0,91,0.00,,,0.00,Rainwise IP-100,2013-05-24 03:48:00,
2013-05-23 23:53:00,66.7,64.0,29.33,SSW,202,3.7,6.1,91,0.00,,,0.00,Rainwise IP-100,2013-05-24 03:53:00,
2013-05-23 23:58:00,66.7,64.0,29.32,WSW,247,4.0,6.1,91,0.00,,,0.00,Rainwise IP-100,2013-05-24 03:58:00,